User: anonymous   Login
Location: Desert Center
(33.7130°N, 115.4010°W)
Time: 09:03:30
(UTC-07:00)
Language:

USA 215 - Orbit

View from above orbital plane
View from above orbital plane
View from above satellite
View from above satellite

Ground track
Ground track

The orbit data is extracted from the following two-line orbital elements,

1 37162U 10046A   17117.10412772 0.00000000  00000-0  00000-0 0    04
2 37162 123.0013  16.9330 0006000 150.3005 209.6994 13.41413563    03
Epoch (UTC): 27 April 2017 02:29:56
Eccentricity: 0.0006000
inclination: 123.0013°
perigee height: 1099 km
apogee height: 1108 km
right ascension of ascending node: 16.9330°
argument of perigee: 150.3005°
revolutions per day: 13.41413563
mean anomaly at epoch: 209.6994°
orbit number at epoch: 0

The dashed part of the orbit path shows where the satellite is in the earth's shadow,  

DLR